Location: Rounton
(54.4000°N, 1.3500°W)
Time: 01:44:04
(UTC+00:00)

A-11 Canister half - Pass Details

Date: 01 December 2021
Orbit: 1524 x 1684 km, 47.3° (Epoch: 19 January)

Event Time Altitude Azimuth Distance (km) Brightness Sun altitude
Exits shadow 06:21:28 13° 265° (W) 3,655 10.4 -13.8°
Maximum altitude 06:30:11 54° 194° (SSW) 1,929 9.5 -12.6°
Drops below altitude 10° 06:39:30 10° 121° (ESE) 3,806 12.6 -11.4°
Sets 06:42:38 0° 117° (ESE) 4,768 13.8 -10.9°
